Home   Weather   Fairfield Lakes   Past weeks
Flag for USA

Past Weather in Fairfield Lakes, Georgia, USA — Yesterday and Last 2 Weeks

Now
60 °F

Overcast.


Feels Like: 60 °F
Forecast: 62 / 45 °F
Wind: 3 mph from North

Location: Fulton County Airport-Brown Field

Current Time: Dec 7, 2019 at 2:10:46 pm

Latest Report: Dec 7, 2019 at 12:53 pm


Visibility: 10 mi

Pressure: 30.23 "Hg

Humidity: 49%

Dew Point: 41 °F

Location of Fairfield LakesLocation

Past Weather in Fairfield Lakes — Graph

°F

Fairfield Lakes Temperature Yesterday

Maximum temperature yesterday: 58 °F (at 1:53 pm)
Minimum temperature yesterday: 41 °F (at 1:53 am)
Average temperature yesterday: 49 °F

High & Low Weather Summary for the Past Weeks

 TemperatureHumidityPressure
High74 °F (Nov 27, 1:53 pm)97% (Nov 25, 3:53 am)30.31 "Hg (Nov 25, 3:53 am)
Low32 °F (Nov 25, 5:21 am)14% (Nov 27, 3:53 pm)29.58 "Hg (Dec 1, 2:53 pm)
Average52 °F64%29.99 "Hg
* Reported Nov 22 12:53 pm — Dec 7 12:53 pm, Fairfield Lakes. Weather by CustomWeather, © 2019

Note: Actual official high and low records may vary slightly from our data, if they occured in-between our weather recording intervals... More about our weather records

Fairfield Lakes Weather History for the Previous 24 Hours

Scroll right to see more
 ConditionsComfort  
Time TempWeatherWind HumidityBarometerVisibility
12:53 pm
Sat, Dec 7
60 °FOvercast.3 mph49%30.23 "Hg10 mi
11:53 am58 °FOvercast.7 mph58%30.26 "Hg10 mi
10:53 am54 °FOvercast.No wind69%30.26 "Hg10 mi
9:53 am52 °FOvercast.No wind75%30.25 "Hg10 mi
8:53 am48 °FOvercast.No wind86%30.24 "Hg10 mi
7:53 am43 °FPassing clouds.No wind93%30.23 "Hg9 mi
6:53 am46 °FPassing clouds.No wind89%30.20 "Hg10 mi
5:53 am49 °FMostly cloudy.No wind80%30.19 "Hg10 mi
4:53 am50 °FMostly cloudy.No wind77%30.19 "Hg10 mi
3:53 am50 °FMostly cloudy.3 mph83%30.19 "Hg10 mi
2:53 am50 °FMostly cloudy.No wind80%30.18 "Hg10 mi
1:53 am50 °FOvercast.No wind83%30.17 "Hg10 mi
12:53 am50 °FMostly cloudy.No wind83%30.18 "Hg10 mi
11:53 pm
Fri, Dec 6
50 °FOvercast.No wind86%30.19 "Hg10 mi
10:53 pm50 °FMostly cloudy.No wind86%30.19 "Hg10 mi
9:53 pm52 °FMostly cloudy.No wind80%30.19 "Hg10 mi
8:53 pm52 °FOvercast.No wind80%30.18 "Hg10 mi
7:53 pm51 °FOvercast.No wind80%30.17 "Hg10 mi
6:53 pm51 °FMostly cloudy.No wind80%30.17 "Hg10 mi
5:53 pm52 °FLight rain. Mostly cloudy.No wind72%30.14 "Hg10 mi
4:53 pm58 °FOvercast.No wind41%30.13 "Hg10 mi
3:53 pm58 °FMostly cloudy.5 mph44%30.12 "Hg10 mi
2:53 pm58 °FPartly sunny.5 mph44%30.13 "Hg10 mi
Weather by CustomWeather, © 2019

See weather overview

Advertising